When you browse on this site, cookies collect data to enhance your experience and personalize the content and advertising you see.
Visit our Privacy Policy to learn more. By continuing to use the site, you agree to this use of cookies and data.
  • en Suisse
  • Liste des pays
  • À 7 jours
  • Température de l'eau
  • Carte météo
  • Widgets météo
  • user-avatar
    Se connecter

    Météo par heure à Reading

    Ce jour, 24 Janvier, Vendredi

    Heure Température Précipitation Vent Pression Humidité
    00:00 +6°C° 0 mm 0 m/s 765 mmHg 92%
    01:00 +6°C° 0 mm 0 m/s 765 mmHg 91%
    02:00 +6°C° 0 mm 0 m/s 765 mmHg 91%
    03:00 +7°C° 0 mm 1 m/s 764 mmHg 90%
    04:00 +5°C° 0 mm 0 m/s 764 mmHg 91%
    05:00 +5°C° 0 mm 0 m/s 764 mmHg 92%
    06:00 +5°C° 0 mm 0 m/s 763 mmHg 92%
    07:00 +6°C° 0 mm 1 m/s 763 mmHg 92%
    08:00 +6°C° 0 mm 1 m/s 763 mmHg 92%
    09:00 +7°C° 0 mm 1 m/s 763 mmHg 92%
    10:00 +7°C° 0 mm 1 m/s 763 mmHg 91%
    11:00 +6°C° 0 mm 0 m/s 763 mmHg 90%
    12:00 +7°C° 0 mm 0 m/s 763 mmHg 89%
    13:00 +7°C° 0 mm 0 m/s 763 mmHg 88%
    14:00 +8°C° 0 mm 1 m/s 762 mmHg 87%
    15:00 +9°C° 0 mm 1 m/s 762 mmHg 87%
    16:00 +8°C° 0 mm 1 m/s 762 mmHg 89%
    17:00 +8°C° 0 mm 1 m/s 762 mmHg 90%
    18:00 +7°C° 0 mm 1 m/s 762 mmHg 92%
    19:00 +7°C° 0 mm 1 m/s 762 mmHg 92%
    20:00 +7°C° 0 mm 1 m/s 762 mmHg 92%
    21:00 +6°C° 0 mm 1 m/s 762 mmHg 93%
    22:00 +6°C° 0 mm 1 m/s 762 mmHg 93%
    23:00 +6°C° 0 mm 1 m/s 762 mmHg 93%

    Demain, 25 Janvier, Samedi

    Heure Température Précipitation Vent Pression Humidité
    00:00 +6°C° 0 mm 1 m/s 762 mmHg 94%
    01:00 +5°C° 0 mm 1 m/s 761 mmHg 94%
    02:00 +5°C° 0 mm 1 m/s 761 mmHg 94%
    03:00 +4°C° 0 mm 1 m/s 761 mmHg 94%
    04:00 +4°C° 0 mm 1 m/s 760 mmHg 94%
    05:00 +4°C° 0 mm 1 m/s 760 mmHg 94%
    06:00 +3°C° 0 mm 1 m/s 760 mmHg 93%
    07:00 +3°C° 0 mm 1 m/s 760 mmHg 93%
    08:00 +4°C° 0 mm 1 m/s 760 mmHg 93%
    09:00 +3°C° 0 mm 2 m/s 760 mmHg 93%
    10:00 +4°C° 0 mm 2 m/s 760 mmHg 90%
    11:00 +5°C° 0 mm 3 m/s 759 mmHg 88%
    12:00 +8°C° 0 mm 3 m/s 759 mmHg 86%
    13:00 +8°C° 0 mm 3 m/s 759 mmHg 86%
    14:00 +8°C° 0 mm 3 m/s 758 mmHg 87%
    15:00 +9°C° 0 mm 3 m/s 758 mmHg 88%
    16:00 +8°C° 0 mm 3 m/s 757 mmHg 90%
    17:00 +7°C° 0 mm 3 m/s 757 mmHg 93%
    18:00 +7°C° 0 mm 3 m/s 757 mmHg 95%
    19:00 +7°C° 0 mm 3 m/s 757 mmHg 95%
    20:00 +7°C° 0 mm 3 m/s 757 mmHg 95%
    21:00 +7°C° 0 mm 3 m/s 757 mmHg 95%
    22:00 +7°C° 0 mm 3 m/s 756 mmHg 94%
    23:00 +7°C° 0 mm 2 m/s 756 mmHg 94%

    Après-demain, 26 Janvier, Dimanche

    Heure Température Précipitation Vent Pression Humidité
    00:00 +6°C° 0 mm 2 m/s 756 mmHg 94%
    01:00 +5°C° 0 mm 3 m/s 755 mmHg 95%
    02:00 +5°C° 0 mm 3 m/s 755 mmHg 96%
    03:00 +5°C° 0 mm 3 m/s 755 mmHg 97%
    04:00 +5°C° 0 mm 3 m/s 755 mmHg 96%
    05:00 +7°C° 0 mm 3 m/s 754 mmHg 95%
    06:00 +7°C° 0 mm 3 m/s 754 mmHg 94%
    07:00 +7°C° 0 mm 3 m/s 754 mmHg 93%
    08:00 +5°C° 0 mm 4 m/s 754 mmHg 92%
    09:00 +5°C° 0 mm 4 m/s 754 mmHg 91%
    10:00 +6°C° 0 mm 5 m/s 754 mmHg 88%
    11:00 +7°C° 0 mm 6 m/s 753 mmHg 85%
    12:00 +8°C° 0 mm 7 m/s 753 mmHg 83%
    13:00 +8°C° 0.1 mm 7 m/s 752 mmHg 84%
    14:00 +8°C° 0.1 mm 7 m/s 752 mmHg 85%
    15:00 +8°C° 0.1 mm 7 m/s 751 mmHg 87%
    16:00 +8°C° 0.9 mm 7 m/s 751 mmHg 89%
    17:00 +8°C° 0.9 mm 7 m/s 750 mmHg 91%
    18:00 +8°C° 0.9 mm 7 m/s 750 mmHg 93%
    19:00 +8°C° 1.6 mm 6 m/s 750 mmHg 93%
    20:00 +8°C° 1.6 mm 6 m/s 749 mmHg 94%
    21:00 +8°C° 1.6 mm 5 m/s 749 mmHg 94%
    22:00 +7°C° 1.1 mm 4 m/s 749 mmHg 94%
    23:00 +8°C° 1.1 mm 3 m/s 748 mmHg 95%

    27 Janvier, Lundi

    Heure Température Précipitation Vent Pression Humidité
    00:00 +7°C° 1.1 mm 2 m/s 748 mmHg 95%
    01:00 +7°C° 0.1 mm 3 m/s 748 mmHg 95%
    02:00 +5°C° 0.1 mm 3 m/s 748 mmHg 94%
    03:00 +5°C° 0.1 mm 4 m/s 748 mmHg 94%
    04:00 +5°C° 0 mm 4 m/s 748 mmHg 93%
    05:00 +4°C° 0 mm 4 m/s 748 mmHg 91%
    06:00 +4°C° 0 mm 4 m/s 748 mmHg 90%
    07:00 +3°C° 0 mm 5 m/s 748 mmHg 90%
    08:00 +5°C° 0 mm 5 m/s 748 mmHg 90%
    09:00 +5°C° 0 mm 5 m/s 748 mmHg 90%
    10:00 +6°C° 0.2 mm 5 m/s 747 mmHg 87%
    11:00 +5°C° 0.2 mm 6 m/s 747 mmHg 85%
    12:00 +6°C° 0.2 mm 7 m/s 746 mmHg 82%
    13:00 +7°C° 0.3 mm 6 m/s 746 mmHg 83%
    14:00 +7°C° 0.3 mm 6 m/s 745 mmHg 84%
    15:00 +7°C° 0.3 mm 5 m/s 744 mmHg 85%
    16:00 +6°C° 0.3 mm 5 m/s 743 mmHg 87%
    17:00 +6°C° 0.3 mm 5 m/s 743 mmHg 88%
    18:00 +5°C° 0.3 mm 4 m/s 742 mmHg 90%
    19:00 +5°C° 0.4 mm 4 m/s 741 mmHg 89%
    20:00 +5°C° 0.4 mm 4 m/s 741 mmHg 88%
    21:00 +5°C° 0.4 mm 5 m/s 740 mmHg 88%
    22:00 +5°C° 0.1 mm 5 m/s 740 mmHg 88%
    23:00 +3°C° 0.1 mm 5 m/s 739 mmHg 88%

    28 Janvier, Mardi

    Heure Température Précipitation Vent Pression Humidité
    00:00 +3°C° 0.1 mm 5 m/s 738 mmHg 87%
    01:00 +2°C° 0 mm 5 m/s 739 mmHg 88%
    02:00 +2°C° 0 mm 5 m/s 739 mmHg 88%
    03:00 +1°C° 0 mm 5 m/s 739 mmHg 89%
    04:00 +1°C° 0 mm 5 m/s 739 mmHg 88%
    05:00 +1°C° 0 mm 5 m/s 739 mmHg 87%
    06:00 0°C° 0 mm 5 m/s 739 mmHg 87%
    07:00 0°C° 0 mm 5 m/s 740 mmHg 85%
    08:00 0°C° 0 mm 5 m/s 740 mmHg 84%
    09:00 0°C° 0 mm 5 m/s 741 mmHg 83%
    10:00 +1°C° 0 mm 6 m/s 741 mmHg 81%
    11:00 +2°C° 0 mm 7 m/s 741 mmHg 79%
    12:00 +2°C° 0 mm 8 m/s 742 mmHg 78%
    13:00 +2°C° 0.2 mm 8 m/s 741 mmHg 76%
    14:00 +2°C° 0.2 mm 8 m/s 741 mmHg 74%
    15:00 +2°C° 0.2 mm 9 m/s 741 mmHg 72%
    16:00 +1°C° 0.1 mm 8 m/s 741 mmHg 74%
    17:00 +1°C° 0.1 mm 8 m/s 741 mmHg 76%
    18:00 0°C° 0.1 mm 7 m/s 741 mmHg 78%
    19:00 0°C° 0 mm 7 m/s 741 mmHg 78%
    20:00 0°C° 0 mm 7 m/s 741 mmHg 77%
    21:00 -1°C° 0 mm 7 m/s 742 mmHg 77%
    22:00 -1°C° 0 mm 7 m/s 742 mmHg 76%
    23:00 -1°C° 0 mm 7 m/s 743 mmHg 76%

    29 Janvier, Mercredi

    Heure Température Précipitation Vent Pression Humidité
    00:00 -1°C° 0 mm 7 m/s 744 mmHg 75%
    01:00 -2°C° 0 mm 6 m/s 744 mmHg 76%
    02:00 -2°C° 0 mm 6 m/s 745 mmHg 77%
    03:00 -2°C° 0 mm 6 m/s 745 mmHg 78%
    04:00 -2°C° 0 mm 6 m/s 746 mmHg 79%
    05:00 -2°C° 0 mm 6 m/s 746 mmHg 79%
    06:00 -2°C° 0 mm 6 m/s 746 mmHg 79%
    07:00 -1°C° 0 mm 6 m/s 746 mmHg 82%
    08:00 -1°C° 0 mm 6 m/s 747 mmHg 85%
    09:00 -1°C° 0 mm 7 m/s 747 mmHg 87%
    10:00 0°C° 0.1 mm 7 m/s 747 mmHg 87%
    11:00 0°C° 0.1 mm 7 m/s 747 mmHg 88%
    12:00 +2°C° 0.1 mm 7 m/s 747 mmHg 88%
    13:00 +2°C° 0 mm 7 m/s 747 mmHg 83%
    14:00 +3°C° 0 mm 7 m/s 747 mmHg 78%
    15:00 +3°C° 0 mm 7 m/s 747 mmHg 73%
    16:00 +2°C° 0 mm 6 m/s 747 mmHg 76%
    17:00 +1°C° 0 mm 5 m/s 748 mmHg 79%
    18:00 0°C° 0 mm 5 m/s 748 mmHg 82%
    19:00 0°C° 0 mm 5 m/s 749 mmHg 82%
    20:00 0°C° 0 mm 5 m/s 749 mmHg 82%
    21:00 -1°C° 0 mm 4 m/s 750 mmHg 83%
    22:00 -1°C° 0 mm 4 m/s 750 mmHg 84%
    23:00 -1°C° 0 mm 4 m/s 751 mmHg 84%
    Voir plus